sat.trackr.live / text

‹ back to catalog

STARLINK-32936

NORAD 63147 · 2025-043R

PAYLOAD ACTIVE UNKNOWN

§ Identity

Operator
Country
US
Launch date
2025-03-03
Launch site
AFETR
Launch vehicle
Mass (kg)
RCS (m²)

Purposes: comms

External: N2YO · Heavens-Above · Gunter

§ Orbital elements

Epoch: 2026-05-24T19:15:20.670912Z

Period
94.27 min
Inclination
42.9992°
Eccentricity
0.0001766
Mean motion
15.27588409 rev/d
Perigee alt
481.8 km
Apogee alt
484.2 km
Semi-major
6,861.2 km
B*
4.2527e-4
RAAN
313.2414°
Arg perigee
259.5304°
Mean anomaly
100.5349°
Rev number
6,892

§ Raw data

STARLINK-329361 63147U 25043R   26144.80232258  .00011462  00000+0  42527-3 0  99982 63147  42.9992 313.2414 0001766 259.5304 100.5349 15.27588409 68920

JSON: /api/v1/satellites/63147 · /tle

For live sub-satellite position, see the globe view (requires WebGL).

§ Visibility from observer

Set your observer location to see the next 7 days of passes ≥ 10°. The values pass through the URL so the page stays shareable.

No JS? Fill the form by hand. The geolocation button needs JavaScript.